[[{"header":{"parameterUnit":"m.s-1","parameterCategory":1,"la1":30.2991,"la2":30.254,"lo1":-89.0895,"lo2":-89.0444,"dy":0.0017,"dx":0.0017,"nx":28,"ny":28,"refTime":"2024-04-23T09:00:00:Z","depth":0,"parameterNumber":2,"parameterNumberName":"U-component_of_WINDS"},"data":[0,0,0,0,0,0,0,0,0,0,0,0,0,0,0,0,0,0,0,0,0,0,0,0,0,0,0,0,0,0,0,0,0,0,0,0,0,0,0,0,0,0,0,0,0,0,0,0,0,0,0,0,0,0,0,0,0,0,-4.0847,-4.0848,0,-4.0924,-4.0924,-4.0925,-4.0815,-4.0811,-4.0807,-4.0804,-4.0879,-4.0884,-4.089,0,0,0,0,0,0,0,0,0,0,0,0,0,-4.0601,-4.0606,-4.0847,-4.0848,-4.0849,-4.0923,-4.0924,-4.0926,-4.0816,-4.0811,-4.0806,-4.0802,-4.0877,-4.0883,-4.089,0,0,0,0,0,0,0,0,0,0,0,0,0,-4.0696,-4.0608,-4.0847,-4.0803,-4.08,-4.0923,-4.0925,-4.0926,-4.0817,-4.0811,-4.0805,-4.08,-4.0875,-4.0883,-4.0891,-4.106,0,0,-4.0917,-4.092,0,0,0,0,0,0,0,0,-4.0691,-4.0705,-4.0809,-4.0806,-4.0803,-4.0854,-4.0865,-4.0971,-4.0818,-4.081,-4.0803,-4.0797,-4.0875,-4.0883,-4.091,-4.1063,-4.1066,-4.0917,-4.0923,-4.0926,-4.0929,0,0,0,0,0,0,0,-4.0684,-4.0701,-4.0877,-4.081,-4.0807,-4.0778,-4.0785,-4.0885,-4.0874,-4.081,-4.0803,-4.0813,-4.0872,-4.0902,-4.0911,-4.1067,-4.0917,-4.0925,-4.093,-4.0933,-4.136,-4.1366,0,0,0,0,0,0,-4.0683,-4.0696,-4.0875,-4.0879,-4.0731,-4.0787,-4.0795,-4.0843,-4.0873,-4.0872,-4.0818,-4.0808,-4.0891,-4.0901,-4.0913,-4.111,-4.0926,-4.0934,-4.0939,-4.1354,-4.1362,-4.1368,0,0,0,0,0,0,-4.0679,-4.07,-4.0871,-4.0786,-4.0805,-4.0798,-4.0853,-4.0848,-4.0878,-4.0879,-4.0876,-4.0851,-4.0886,-4.0901,-4.1024,-4.1112,-4.0938,-4.0945,-4.1347,-4.1356,-4.1365,-4.1508,0,0,0,0,0,0,-4.0672,-4.0699,-4.0764,-4.0788,-4.081,-4.0983,-4.0858,-4.0854,-4.0893,-4.088,-4.0909,-4.0908,-4.0883,-4.1012,-4.1032,-4.112,-4.0952,-4.1339,-4.1351,-4.1362,-4.1495,-4.1521,-4.1543,0,0,0,0,0,-4.0664,-4.0801,-4.0768,-4.079,-4.0892,-4.0988,-4.1,-4.097,-4.0901,-4.0965,-4.0965,-4.0907,-4.1099,-4.1025,-4.1047,-4.1139,-4.1333,-4.1347,-4.1361,-4.1485,-4.1516,-4.1543,0,0,0,0,0,0,-4.0787,-4.0804,-4.0767,-4.0917,-4.0952,-4.0969,-4.1049,-4.1005,-4.1059,-4.1045,-4.1004,-4.1011,-4.1142,-4.1153,-4.107,-4.1303,-4.1204,-4.1223,-4.1291,-4.1321,-4.1344,-4.1338,-4.0959,0,0,0,0,0,-4.0832,-4.091,-4.092,-4.1051,-4.107,-4.1058,-4.1098,-4.1072,-4.1106,-4.112,-4.1129,-4.1164,-4.1231,-4.1277,-4.1339,-4.1497,-4.15,-4.1571,-4.1595,-4.1614,-4.1631,-4.1713,-4.1744,-4.1415,-4.1415,-4.1414,0,0,-4.0925,-4.0943,-4.0995,-4.1076,-4.11,-4.118,-4.107,-4.116,-4.1219,-4.1133,-4.1249,-4.1257,-4.1293,-4.1433,-4.1495,-4.1446,-4.1723,-4.1633,-4.1648,-4.1654,-4.1731,-4.1762,-4.179,-4.1424,-4.1423,-4.1421,0,0,-4.1134,-4.1158,-4.1268,-4.1295,-4.1333,-4.1324,-4.135,-4.1375,-4.1377,-4.1493,-4.143,-4.1498,-4.1617,-4.1644,-4.1673,-4.1894,-4.1841,-4.1915,-4.2039,-4.212,-4.2146,-4.2169,-4.2245,-4.2273,-4.1932,-4.1932,-4.1933,0,-4.1244,-4.1364,-4.1331,-4.1425,-4.1461,-4.1389,-4.15,-4.1527,-4.1583,-4.1609,-4.1554,-4.17,-4.1719,-4.1863,-4.1917,-4.1944,-4.1972,-4.1911,-4.2145,-4.2168,-4.2188,-4.226,-4.229,-4.1941,-4.194,-4.1939,-4.1938,0,-4.1496,-4.158,-4.1665,-4.1722,-4.1769,-4.1871,-4.1851,-4.1902,-4.1872,-4.1868,-4.1986,-4.2006,-4.2071,-4.2103,-4.2075,-4.2244,-4.2212,-4.2152,-4.2052,-4.2229,-4.2296,-4.2323,-4.1953,-4.195,-4.1948,-4.1945,0,0,-4.1785,-4.1823,-4.1854,-4.1879,-4.1915,-4.1979,-4.2077,-4.2141,-4.2184,-4.2226,-4.2306,-4.2407,-4.2352,-4.2385,-4.2359,-4.243,-4.26,-4.236,-4.236,-4.2402,-4.2785,-4.2829,-4.2862,-4.2566,-4.2572,-4.2576,-4.2782,0,-4.1993,-4.2163,-4.2136,-4.2301,-4.2376,-4.2309,-4.2394,-4.2425,-4.2424,-4.2486,-4.2484,-4.2556,-4.2479,-4.2498,-4.2565,-4.2565,-4.2676,-4.255,-4.2638,-4.2641,-4.2629,-4.2897,-4.2944,-4.3137,-4.2808,-4.2812,-4.2816,0,-4.2258,-4.231,-4.2482,-4.2506,-4.2536,-4.2614,-4.267,-4.2732,-4.2765,-4.2758,-4.2796,-4.2756,-4.2852,-4.2753,-4.2883,-4.2798,-4.2832,-4.2838,-4.2844,-4.2849,-4.2738,-4.2907,-4.3198,-4.3226,-4.2857,-4.2854,-4.2851,0,-4.2448,-4.2561,-4.2678,-4.2702,-4.2733,-4.2789,-4.2804,-4.2831,-4.2871,-4.292,-4.2945,-4.3004,-4.3036,-4.3082,-4.3059,-4.2989,-4.3193,-4.3091,-4.3188,-4.3189,-4.3232,-4.323,-4.3531,-4.3259,-4.3259,-4.3258,-4.3258,0,-4.2682,-4.2789,-4.2764,-4.2836,-4.2954,-4.2921,-4.3038,-4.3045,-4.307,-4.3141,-4.3086,-4.3153,-4.3119,-4.3184,-4.3166,-4.3275,-4.3291,-4.3287,-4.328,-4.3291,-4.3291,-4.3311,-4.3296,-4.3266,-4.3264,-4.3263,-4.3261,0,-4.2913,-4.2901,-4.3024,-4.3044,-4.3052,-4.3137,-4.3153,-4.322,-4.3215,-4.3305,-4.3324,-4.3315,-4.3388,-4.337,-4.3449,-4.3437,-4.3574,-4.3552,-4.3563,-4.3557,-4.3654,-4.3644,-4.3977,-4.4017,-4.3722,-4.3725,-4.3727,0,-4.3062,-4.3143,-4.3172,-4.3216,-4.3236,-4.3308,-4.3348,-4.3319,-4.3363,-4.3407,-4.3468,-4.3536,-4.3588,-4.3708,-4.3707,-4.3767,-4.3744,-4.3857,-4.3753,-4.376,-4.3743,-4.3737,-4.3744,-4.3877,-4.388,-4.3883,-4.3885,0,-4.3326,-4.3316,-4.3378,-4.3438,-4.3488,-4.3533,-4.3573,-4.3612,-4.3585,-4.3637,-4.3712,-4.3753,-4.3834,-4.3901,-4.3956,-4.397,-4.3923,-4.3918,-4.3943,-4.3953,-4.3955,-4.3953,-4.3617,-4.391,-4.3908,-4.3906,-4.3904,-4.3903,-4.3519,-4.3588,-4.3618,-4.3688,-4.3715,-4.3754,-4.3817,-4.382,-4.3882,-4.3946,-4.3925,-4.4009,-4.4038,-4.4107,-4.4128,-4.4192,-4.415,-4.4187,-4.4196,-4.4205,-4.4215,-4.3948,-4.4203,-4.4202,-4.4201,-4.4201,-4.42,0,-4.3778,-4.3795,-4.386,-4.3918,-4.3972,-4.3925,-4.3967,-4.4015,-4.409,-4.4122,-4.4176,-4.426,-4.4325,-4.4331,-4.4391,-4.4442,-4.4421,-4.4458,-4.4453,-4.4456,-4.4252,-4.4223,-4.4473,-4.4473,-4.4473,-4.4473,-4.4473,-4.4473,-4.392,-4.4032,-4.4026,-4.4151,-4.4166,-4.4249,-4.4276,-4.4311,-4.4336,-4.4433,-4.4487,-4.4491,-4.4512,-4.4574,-4.4631,-4.463,-4.4654,-4.4699,-4.469,-4.4498,-4.4471,-4.4445,-4.4417,-4.4705,-4.4705,-4.4889,-4.4891,-4.4892]},{"header":{"parameterUnit":"m.s-1","parameterCategory":1,"la1":30.2991,"la2":30.254,"lo1":-89.0895,"lo2":-89.0444,"dy":0.0017,"dx":0.0017,"nx":28,"ny":28,"refTime":"2024-04-23T09:00:00:Z","depth":0,"parameterNumber":3,"parameterNumberName":"V-component_of_WINDS"},"data":[0,0,0,0,0,0,0,0,0,0,0,0,0,0,0,0,0,0,0,0,0,0,0,0,0,0,0,0,0,0,0,0,0,0,0,0,0,0,0,0,0,0,0,0,0,0,0,0,0,0,0,0,0,0,0,0,0,0,-1.1852,-1.1852,0,-1.184,-1.184,-1.184,-1.1857,-1.1857,-1.1858,-1.1859,-1.1844,-1.1844,-1.1843,0,0,0,0,0,0,0,0,0,0,0,0,0,-1.1886,-1.1886,-1.1853,-1.1852,-1.1852,-1.184,-1.184,-1.184,-1.1857,-1.1857,-1.1858,-1.1859,-1.1845,-1.1844,-1.1842,0,0,0,0,0,0,0,0,0,0,0,0,0,-1.1873,-1.1886,-1.1853,-1.1859,-1.186,-1.184,-1.184,-1.184,-1.1857,-1.1857,-1.1858,-1.1859,-1.1845,-1.1844,-1.1842,-1.1815,0,0,-1.1838,-1.1837,0,0,0,0,0,0,0,0,-1.1873,-1.1871,-1.1858,-1.1859,-1.1859,-1.1851,-1.1847,-1.1831,-1.1856,-1.1858,-1.1859,-1.186,-1.1846,-1.1844,-1.184,-1.1815,-1.1814,-1.1838,-1.1837,-1.1836,-1.1836,0,0,0,0,0,0,0,-1.1874,-1.1872,-1.1848,-1.1858,-1.1859,-1.1861,-1.186,-1.1844,-1.1847,-1.1858,-1.1859,-1.1857,-1.1846,-1.1841,-1.184,-1.1814,-1.1838,-1.1837,-1.1836,-1.1835,-1.1761,-1.176,0,0,0,0,0,0,-1.1875,-1.1873,-1.1848,-1.1847,-1.1869,-1.186,-1.1859,-1.1853,-1.1847,-1.1847,-1.1856,-1.1858,-1.1843,-1.1841,-1.1839,-1.1804,-1.1836,-1.1835,-1.1834,-1.1762,-1.176,-1.1759,0,0,0,0,0,0,-1.1876,-1.1873,-1.1848,-1.186,-1.1857,-1.1859,-1.1851,-1.1852,-1.1847,-1.1846,-1.1846,-1.1851,-1.1844,-1.1841,-1.182,-1.1804,-1.1834,-1.1833,-1.1763,-1.1761,-1.176,-1.1735,0,0,0,0,0,0,-1.1876,-1.1873,-1.1864,-1.186,-1.1857,-1.1831,-1.185,-1.1851,-1.1845,-1.1847,-1.1841,-1.1841,-1.1844,-1.1822,-1.1819,-1.1802,-1.1832,-1.1765,-1.1762,-1.176,-1.1737,-1.1733,-1.1729,0,0,0,0,0,-1.1878,-1.1858,-1.1863,-1.186,-1.1846,-1.183,-1.1828,-1.1833,-1.1844,-1.1833,-1.1832,-1.1841,-1.1806,-1.182,-1.1816,-1.1799,-1.1766,-1.1763,-1.176,-1.1739,-1.1734,-1.1729,0,0,0,0,0,0,-1.186,-1.1858,-1.1864,-1.1842,-1.1836,-1.1833,-1.182,-1.1827,-1.1817,-1.182,-1.1825,-1.1824,-1.18,-1.1798,-1.1813,-1.177,-1.1788,-1.1784,-1.1773,-1.1767,-1.1763,-1.1763,-1.1831,0,0,0,0,0,-1.1854,-1.1842,-1.184,-1.1822,-1.1818,-1.1819,-1.1813,-1.1817,-1.181,-1.1808,-1.1805,-1.1798,-1.1785,-1.1776,-1.1765,-1.1737,-1.1734,-1.1723,-1.1719,-1.1716,-1.1712,-1.1693,-1.1687,-1.1751,-1.1751,-1.1751,0,0,-1.184,-1.1838,-1.183,-1.1818,-1.1814,-1.1799,-1.1817,-1.1803,-1.1792,-1.1806,-1.1785,-1.1782,-1.1774,-1.1748,-1.1737,-1.1746,-1.1694,-1.1713,-1.171,-1.1708,-1.169,-1.1684,-1.1679,-1.1749,-1.1749,-1.175,0,0,-1.1809,-1.1807,-1.1789,-1.1784,-1.1777,-1.1777,-1.1773,-1.1768,-1.1766,-1.1745,-1.1754,-1.174,-1.1719,-1.1712,-1.1705,-1.1667,-1.1673,-1.1663,-1.164,-1.1621,-1.1616,-1.1612,-1.1595,-1.1589,-1.1659,-1.1659,-1.1659,0,-1.1793,-1.1773,-1.1779,-1.1763,-1.1755,-1.1767,-1.1747,-1.1742,-1.1731,-1.1725,-1.1735,-1.1705,-1.1701,-1.1672,-1.1662,-1.1657,-1.165,-1.1663,-1.1617,-1.1612,-1.1608,-1.1592,-1.1586,-1.1658,-1.1658,-1.1658,-1.1658,0,-1.1752,-1.1738,-1.1725,-1.1713,-1.1704,-1.1687,-1.1688,-1.1678,-1.1682,-1.168,-1.1656,-1.1651,-1.1637,-1.1631,-1.1635,-1.1601,-1.1606,-1.1616,-1.1633,-1.1601,-1.1585,-1.1579,-1.1656,-1.1656,-1.1657,-1.1657,0,0,-1.1711,-1.17,-1.1695,-1.1688,-1.1679,-1.1668,-1.1649,-1.1634,-1.1624,-1.1616,-1.1598,-1.1578,-1.1586,-1.1579,-1.1582,-1.1566,-1.1531,-1.1578,-1.1577,-1.1566,-1.1488,-1.1479,-1.1472,-1.1536,-1.1535,-1.1534,-1.1488,0,-1.1677,-1.1645,-1.1647,-1.1616,-1.1601,-1.161,-1.1593,-1.1584,-1.1582,-1.1567,-1.1565,-1.1549,-1.1563,-1.1558,-1.1542,-1.1538,-1.1515,-1.1542,-1.1517,-1.1516,-1.1516,-1.1464,-1.1455,-1.1412,-1.1482,-1.1481,-1.1481,0,-1.1633,-1.1622,-1.1589,-1.1578,-1.1572,-1.1557,-1.1542,-1.1529,-1.1518,-1.1517,-1.1507,-1.1511,-1.1489,-1.1508,-1.1476,-1.1494,-1.1484,-1.148,-1.1478,-1.1474,-1.1495,-1.1456,-1.1399,-1.1391,-1.1472,-1.1472,-1.1473,0,-1.1602,-1.1579,-1.1555,-1.1549,-1.1538,-1.1526,-1.152,-1.1511,-1.15,-1.1487,-1.1479,-1.1464,-1.1454,-1.1441,-1.144,-1.1454,-1.1406,-1.1426,-1.1402,-1.1402,-1.1391,-1.1391,-1.1328,-1.1388,-1.1388,-1.1388,-1.1388,0,-1.1563,-1.1541,-1.154,-1.1525,-1.15,-1.1503,-1.1477,-1.1473,-1.1463,-1.1446,-1.1453,-1.1436,-1.1437,-1.1419,-1.1418,-1.1389,-1.1386,-1.1383,-1.1382,-1.1381,-1.1381,-1.1373,-1.1375,-1.1387,-1.1387,-1.1387,-1.1388,0,-1.1524,-1.1523,-1.1496,-1.1487,-1.1483,-1.1465,-1.1456,-1.144,-1.1437,-1.1415,-1.141,-1.1405,-1.1384,-1.1381,-1.1358,-1.1357,-1.1321,-1.1325,-1.1324,-1.1324,-1.13,-1.1301,-1.1228,-1.1217,-1.1286,-1.1286,-1.1285,0,-1.1498,-1.1481,-1.1469,-1.1458,-1.1451,-1.1433,-1.1422,-1.1423,-1.141,-1.1394,-1.138,-1.1359,-1.1343,-1.1308,-1.1302,-1.1282,-1.1284,-1.1259,-1.1281,-1.1278,-1.1279,-1.1279,-1.1276,-1.1255,-1.1254,-1.1253,-1.1253,0,-1.1451,-1.145,-1.1434,-1.1417,-1.1403,-1.1389,-1.1377,-1.1366,-1.1365,-1.135,-1.1328,-1.1315,-1.1289,-1.1267,-1.1247,-1.124,-1.1244,-1.1246,-1.1239,-1.1236,-1.1235,-1.1232,-1.131,-1.1248,-1.1248,-1.1249,-1.1249,-1.1249,-1.1416,-1.14,-1.1387,-1.1368,-1.1358,-1.1345,-1.1329,-1.1323,-1.1305,-1.1283,-1.1284,-1.1259,-1.1244,-1.1218,-1.1208,-1.1187,-1.1195,-1.1186,-1.1183,-1.118,-1.1176,-1.124,-1.1184,-1.1184,-1.1184,-1.1184,-1.1184,0,-1.1366,-1.1358,-1.134,-1.1321,-1.1305,-1.1311,-1.1296,-1.1282,-1.1259,-1.1246,-1.1229,-1.1201,-1.1179,-1.1169,-1.1147,-1.1131,-1.1132,-1.1125,-1.1125,-1.1122,-1.1172,-1.1179,-1.1124,-1.1124,-1.1124,-1.1124,-1.1124,-1.1124,-1.1339,-1.1311,-1.1308,-1.1273,-1.1265,-1.124,-1.123,-1.1217,-1.1205,-1.1174,-1.1156,-1.1149,-1.1136,-1.1112,-1.1091,-1.1088,-1.1078,-1.1069,-1.1067,-1.1113,-1.1119,-1.1125,-1.1131,-1.1067,-1.1067,-1.1018,-1.1018,-1.1017]}]]